Home   Weather   Keratsini   Past weeks

Flag for Greece Past Weather in Keratsini, Greece — Yesterday and Last 2 Weeks

Now
50 °F

Scattered clouds.


Feels Like: 46 °F
Forecast: 43 / 50 °F
Wind: 12 mph from Northwest

Location: Elefsis Airport

Current Time: Jan 22, 2017 at 4:33:30 pm

Latest Report: Jan 22, 2017 at 3:50 pm


Visibility: N/A

Pressure: 30.36 "Hg

Humidity: 58%

Dew Point: 36 °F

Location of KeratsiniLocation

Past Weather in Keratsini — Graph

°F

Keratsini Temperature Yesterday

Maximum temperature yesterday: 52 °F (at 12:20 pm)
Minimum temperature yesterday: 43 °F (at 1:50 am)
Average temperature yesterday: 46 °F

High & Low Weather Summary for the Past Weeks

 TemperatureHumidityPressure
High64 °F (Jan 14, 1:50 pm)100% (Jan 8, 8:20 am)30.45 "Hg (Jan 8, 8:20 am)
Low28 °F (Jan 8, 2:20 am)23% (Jan 15, 12:20 pm)29.68 "Hg (Jan 14, 1:50 pm)
Average44 °F68%30.04 "Hg
* Reported Jan 7 3:20 pm — Jan 22 3:20 pm, Keratsini, Weather by CustomWeather, © 2017

Note: Actual official high and low records may vary slightly from our data, if they occured in-between our weather recording intervals... More about our weather records

Advertising

Keratsini Weather History for the Previous 24 Hours

Scroll right to see more
 ConditionsComfort  
Time TempWeatherWind HumidityBarometerVisibility
3:20 pm
Sun, Jan 22
52 °FScattered clouds.14 mph54%30.36 "HgN/A
2:50 pm50 °FScattered clouds.13 mph58%30.36 "HgN/A
2:20 pm52 °FScattered clouds.12 mph54%30.36 "HgN/A
1:50 pm52 °FScattered clouds.12 mph54%30.36 "HgN/A
1:20 pm52 °FScattered clouds.12 mph54%30.36 "HgN/A
12:50 pm52 °FScattered clouds.12 mph54%30.39 "HgN/A
12:20 pm52 °FPassing clouds.9 mph54%30.39 "HgN/A
11:50 am52 °FPassing clouds.10 mph50%30.39 "HgN/A
10:50 am50 °FPassing clouds.8 mph58%30.39 "HgN/A
10:20 am50 °FPassing clouds.8 mph58%30.42 "HgN/A
9:50 am48 °FPassing clouds.9 mph62%30.42 "HgN/A
9:20 am46 °FPassing clouds.8 mph66%30.39 "HgN/A
8:50 am46 °FPassing clouds.7 mph66%30.39 "HgN/A
8:20 am45 °FPassing clouds.6 mph71%30.39 "HgN/A
7:50 am43 °FPassing clouds.7 mph76%30.42 "HgN/A
7:20 am43 °FPassing clouds.6 mph76%30.39 "HgN/A
6:50 am43 °FPassing clouds.5 mph76%30.39 "HgN/A
6:20 am43 °FPassing clouds.5 mph76%30.39 "HgN/A
5:50 am43 °FPassing clouds.7 mph76%30.39 "HgN/A
5:20 am43 °FPassing clouds.7 mph76%30.39 "HgN/A
4:50 am43 °FPassing clouds.7 mph76%30.39 "HgN/A
4:20 am43 °FPassing clouds.7 mph76%30.39 "HgN/A
3:50 am43 °FPassing clouds.7 mph76%30.39 "HgN/A
2:50 am41 °FPassing clouds.3 mph76%30.39 "HgN/A
1:50 am43 °FPassing clouds.3 mph71%30.39 "HgN/A
12:20 am43 °FPassing clouds.6 mph71%30.39 "HgN/A
11:50 pm
Sat, Jan 21
43 °FPassing clouds.6 mph76%30.39 "HgN/A
11:20 pm43 °FPassing clouds.5 mph76%30.39 "HgN/A
10:50 pm43 °FPassing clouds.5 mph76%30.39 "HgN/A
10:20 pm43 °FPassing clouds.3 mph71%30.39 "HgN/A
9:50 pm43 °FPassing clouds.3 mph76%30.39 "HgN/A
9:20 pm43 °FPassing clouds.3 mph76%30.39 "HgN/A
8:50 pm43 °FPassing clouds.No wind76%30.39 "HgN/A
8:20 pm45 °FPassing clouds.5 mph71%30.39 "HgN/A
7:50 pm45 °FPassing clouds.5 mph71%30.39 "HgN/A
7:20 pm45 °FPassing clouds.6 mph71%30.36 "HgN/A
6:50 pm46 °FPassing clouds.7 mph66%30.36 "HgN/A
6:20 pm46 °FPassing clouds.9 mph71%30.36 "HgN/A
5:50 pm46 °FPassing clouds.8 mph66%30.36 "HgN/A
5:20 pm48 °FScattered clouds.8 mph66%30.36 "HgN/A
4:50 pm50 °FScattered clouds.9 mph62%30.33 "HgN/A
4:20 pm50 °FScattered clouds.8 mph62%30.36 "HgN/A
Weather by CustomWeather, © 2017

See weather overviewHow to use our weather pages